Hourly Data Report for May 23, 2021

TOBERMORY RCS
ONTARIO
Current Station Operator: ECCC - MSC

45°14'00.000" N
81°38'00.000" W
213.50 m
6128330
71767
TTR

Download Data

Hourly Data (May 2021)
Hourly Data Report for May 23, 2021
TIME
LST
Temp Definition
°C
Dew Point Definition
°C
Rel Hum Definition
%
Precip. Amount Definition
mm

Wind Dir Definition
10's deg

Wind Spd Definition
km/h
Visibility Definition
km
Stn Press Definition
kPa
Hmdx Definition


Wind Chill Definition


Weather Definition


00:00 12.2 12.0 99 0.0 20 6   99.35     LegendNANA
01:00 11.5 11.4 99 0.0 19 5   99.27     LegendNANA
02:00 12.4 12.2 99 0.0 21 6   99.22     LegendNANA
03:00 13.2 13.0 99 0.0 22 5   99.19     LegendNANA
04:00 12.6 12.5 99 0.0 29 12   99.20     LegendNANA
05:00 13.0 12.8 99 0.0 32 13   99.25     LegendNANA
06:00 12.9 12.5 97 0.0 36 17   99.40     LegendNANA
07:00 10.5 8.8 89 0.0 2 16   99.53     LegendNANA
08:00 9.3 6.8 85 0.0 2 18   99.63     LegendNANA
09:00 9.1 6.0 81 0.0 3 19   99.70     LegendNANA
10:00 9.4 5.7 78 0.0 4 15   99.75     LegendNANA
11:00 9.8 5.2 73 0.0 4 17   99.84     LegendNANA
12:00 9.9 4.5 69 0.0 3 15   99.85     LegendNANA
13:00 10.7 4.3 65 0.0 3 15   99.85     LegendNANA
14:00 12.3 5.2 62 0.0 2 15   99.88     LegendNANA
15:00 12.8 4.2 56 0.0 2 13   99.84     LegendNANA
16:00 13.1 3.9 54 0.0 3 14   99.81     LegendNANA
17:00 13.4 4.0 53 0.0 3 9   99.80     LegendNANA
18:00 12.5 4.2 57 0.0 2 7   99.82     LegendNANA
19:00 11.7 4.1 59 0.0 4 5   99.83     LegendNANA
20:00 9.9 4.3 68 0.0 2 4   99.86     LegendNANA
21:00 9.7 2.8 62 0.0 6 6   99.89     LegendNANA
22:00 9.7 2.2 59 0.0 7 5   99.91     LegendNANA
23:00 10.0 1.6 56 0.0 7 7   99.90     LegendNANA

Notes on Data Quality.

Legend

  • E = Estimated
  • M = Missing
  • NA = Not Available*
  • [empty] = Indicates an unobserved value
Date modified: